Tracking 18843 objects as of 21-November-2017
HD Live streaming from Space Station
objects crossing your sky now

COSMOS 1434

Track COSMOS 1434 now!
10-day predictions
COSMOS 1434 is classified as:


NORAD ID: 13766
Int'l Code: 1983-002F
Perigee: 1,436.9 km
Apogee: 1,474.9 km
Inclination: 74.0 °
Period: 114.9 minutes
Semi major axis: 7826 km
RCS: 0.659 m2 (medium)
Launch date: January 19, 1983
Source: Commonwealth of Independent States (former USSR) (CIS)
Launch site: PLESETSK MISSILE AND SPACE COMPLEX (PKMTR)
aabbcc
Your satellite tracking list
Your tracking list is empty




NASA's NSSDC Master Catalog

Two Line Element Set (TLE):
1 13766U 83002F   17324.58133928 -.00000000 +00000-0 +10122-3 0  9992
2 13766 074.0269 051.0384 0024261 292.0981 171.3238 12.53773118594696
Source of the keplerian elements: AFSPC